| time (UTC) | temp F | wind direction | speed knots | gust knots | rain 1hr in | rain 24hr in | rain mn in | humidity % | barometer mb |
| 20260901223034 | 62 | 73 | 0.0 | 2.6 | 0.00 | 0.00 | 0.00 | ||
| 20260901213049 | 63 | 251 | 0.0 | 0.9 | 0.00 | 0.00 | 0.00 | ||
| 20260901210100 | 64 | 190 | 0.0 | 0.9 | 0.00 | 0.00 | 0.00 | ||
| 20260901203040 | 64 | 243 | 1.7 | 3.5 | 0.00 | 0.00 | 0.00 | ||
| 20260901193034 | 63 | 204 | 0.0 | 2.6 | 0.00 | 0.00 | 0.00 | ||
| 20260901183045 | 63 | 255 | 1.7 | 7.0 | 0.00 | 0.00 | 0.00 | ||
| 20260901180056 | 64 | 180 | 0.9 | 5.2 | 0.00 | 0.00 | 0.00 | ||
| 20260901170108 | 62 | 216 | 0.9 | 3.5 | 0.00 | 0.00 | 0.00 | ||
| 20260901160101 | 62 | 265 | 0.9 | 2.6 | 0.00 | 0.00 | 0.00 | ||
| 20260901153040 | 61 | 217 | 0.0 | 4.3 | 0.00 | 0.00 | 0.00 | ||
| 20260901150111 | 61 | 171 | 0.0 | 1.7 | 0.00 | 0.00 | 0.00 | ||
| 20260901143047 | 60 | 232 | 0.0 | 3.5 | 0.00 | 0.00 | 0.00 | ||
| 20260901133039 | 60 | 258 | 1.7 | 4.3 | 0.00 | 0.00 | 0.00 | ||
| 20260901130111 | 60 | 234 | 0.0 | 3.5 | 0.00 | 0.00 | 0.00 | ||
| 20260901120104 | 60 | 250 | 0.0 | 4.3 | 0.00 | 0.00 | 0.00 | ||
| 20260901110055 | 60 | 261 | 0.9 | 4.3 | 0.00 | 0.00 | 0.00 | ||
| 20260901103035 | 60 | 271 | 0.9 | 4.3 | 0.00 | 0.00 | 0.00 | ||
| 20260901093044 | 60 | 235 | 0.0 | 2.6 | 0.00 | 0.00 | 0.00 | ||
| 20260901083038 | 60 | 224 | 0.0 | 2.6 | 0.00 | 0.00 | 0.00 | ||
| 20260901073032 | 60 | 216 | 0.9 | 2.6 | 0.00 | 0.00 | 0.00 | ||
| 20260901070104 | 60 | 202 | 0.9 | 1.7 | 0.00 | 0.00 | 0.00 | ||
| 20260901063041 | 59 | 237 | 0.9 | 3.5 | 0.00 | 0.00 | 0.00 | ||
| 20260901060108 | 60 | 271 | 0.9 | 4.3 | 0.00 | 0.00 | 0.00 | ||
| 20260901053046 | 61 | 234 | 0.0 | 1.7 | 0.00 | 0.00 | 0.00 | ||
| 20260901050056 | 61 | 205 | 0.0 | 0.9 | 0.00 | 0.00 | 0.00 | ||
| 20260901043037 | 62 | 257 | 0.0 | 0.0 | 0.00 | 0.00 | 0.00 | ||
| 20260901040110 | 63 | 263 | 0.0 | 0.9 | 0.00 | 0.00 | 0.00 | ||
| 20260901033050 | 64 | 248 | 0.0 | 1.7 | 0.00 | 0.00 | 0.00 | ||
| 20260901030058 | 65 | 257 | 0.0 | 1.7 | 0.00 | 0.00 | 0.00 | ||
| 20260901023038 | 67 | 221 | 0.0 | 1.7 | 0.00 | 0.00 | 0.00 | ||
| 20260901020110 | 69 | 237 | 0.9 | 3.5 | 0.00 | 0.00 | 0.00 | ||
| 20260901013029 | 71 | 195 | 1.7 | 4.3 | 0.00 | 0.00 | 0.00 | ||
| 20260901003049 | 73 | 233 | 1.7 | 3.5 | 0.00 | 0.00 | 0.00 | ||
| 20260901000103 | 74 | 14 | 0.9 | 4.3 | 0.00 | 0.00 | 0.00 | ||
| 20260831233022 | 76 | 96 | 0.0 | 4.3 | 0.00 | 0.00 | 0.00 | ||
| 20260831230046 | 76 | 137 | 0.9 | 6.1 | 0.00 | 0.00 | 0.00 |